﻿_id,UTC_DateTime,UTC_Time,PG,PG_mean,unit,site,lat,lon,alt
1,2015-03-10T00:00:00,00:00:00,,,"","",,,
2,2015-03-10T01:00:00,01:00:00,,,"","",,,
3,2015-03-10T02:00:00,02:00:00,,,"","",,,
4,2015-03-10T03:00:00,03:00:00,,,"","",,,
5,2015-03-10T04:00:00,04:00:00,,,"","",,,
6,2015-03-10T05:00:00,05:00:00,,,"","",,,
7,2015-03-10T06:00:00,06:00:00,,,"","",,,
8,2015-03-10T07:00:00,07:00:00,,,"","",,,
9,2015-03-10T08:00:00,08:00:00,442,313,V/m,SWI,52.116,21.237,100
10,2015-03-10T09:00:00,09:00:00,510,283,V/m,SWI,52.116,21.237,100
11,2015-03-10T10:00:00,10:00:00,466,265,V/m,SWI,52.116,21.237,100
12,2015-03-10T11:00:00,11:00:00,406,255,V/m,SWI,52.116,21.237,100
13,2015-03-10T12:00:00,12:00:00,359,262,V/m,SWI,52.116,21.237,100
14,2015-03-10T13:00:00,13:00:00,385,274,V/m,SWI,52.116,21.237,100
15,2015-03-10T14:00:00,14:00:00,383,278,V/m,SWI,52.116,21.237,100
16,2015-03-10T15:00:00,15:00:00,360,281,V/m,SWI,52.116,21.237,100
17,2015-03-10T16:00:00,16:00:00,313,273,V/m,SWI,52.116,21.237,100
18,2015-03-10T17:00:00,17:00:00,334,339,V/m,SWI,52.116,21.237,100
19,2015-03-10T18:00:00,18:00:00,428,424,V/m,SWI,52.116,21.237,100
20,2015-03-10T19:00:00,19:00:00,715,505,V/m,SWI,52.116,21.237,100
21,2015-03-10T20:00:00,20:00:00,899,514,V/m,SWI,52.116,21.237,100
22,2015-03-10T21:00:00,21:00:00,596,495,V/m,SWI,52.116,21.237,100
23,2015-03-10T22:00:00,22:00:00,514,462,V/m,SWI,52.116,21.237,100
24,2015-03-10T23:00:00,23:00:00,424,399,V/m,SWI,52.116,21.237,100
25,2015-03-11T00:00:00,00:00:00,,,"","",,,
26,2015-03-11T01:00:00,01:00:00,,,"","",,,
27,2015-03-11T02:00:00,02:00:00,,,"","",,,
28,2015-03-11T03:00:00,03:00:00,,,"","",,,
29,2015-03-11T04:00:00,04:00:00,,,"","",,,
30,2015-03-11T05:00:00,05:00:00,,,"","",,,
31,2015-03-11T06:00:00,06:00:00,,,"","",,,
32,2015-03-11T07:00:00,07:00:00,,,"","",,,
33,2015-03-11T08:00:00,08:00:00,,,"","",,,
34,2015-03-11T09:00:00,09:00:00,,,"","",,,
35,2015-03-11T10:00:00,10:00:00,,,"","",,,
36,2015-03-11T11:00:00,11:00:00,,,"","",,,
37,2015-03-11T12:00:00,12:00:00,,,"","",,,
38,2015-03-11T13:00:00,13:00:00,,,"","",,,
39,2015-03-11T14:00:00,14:00:00,,,"","",,,
40,2015-03-11T15:00:00,15:00:00,,,"","",,,
41,2015-03-11T16:00:00,16:00:00,,,"","",,,
42,2015-03-11T17:00:00,17:00:00,,,"","",,,
43,2015-03-11T18:00:00,18:00:00,,,"","",,,
44,2015-03-11T19:00:00,19:00:00,,,"","",,,
45,2015-03-11T20:00:00,20:00:00,,,"","",,,
46,2015-03-11T21:00:00,21:00:00,,,"","",,,
47,2015-03-11T22:00:00,22:00:00,,,"","",,,
48,2015-03-11T23:00:00,23:00:00,,,"","",,,
49,2015-03-12T00:00:00,00:00:00,,,"","",,,
50,2015-03-12T01:00:00,01:00:00,,,"","",,,
51,2015-03-12T02:00:00,02:00:00,,,"","",,,
52,2015-03-12T03:00:00,03:00:00,,,"","",,,
53,2015-03-12T04:00:00,04:00:00,,,"","",,,
54,2015-03-12T05:00:00,05:00:00,,,"","",,,
55,2015-03-12T06:00:00,06:00:00,,,"","",,,
56,2015-03-12T07:00:00,07:00:00,,,"","",,,
57,2015-03-12T08:00:00,08:00:00,,,"","",,,
58,2015-03-12T09:00:00,09:00:00,,,"","",,,
59,2015-03-12T10:00:00,10:00:00,,,"","",,,
60,2015-03-12T11:00:00,11:00:00,,,"","",,,
61,2015-03-12T12:00:00,12:00:00,,,"","",,,
62,2015-03-12T13:00:00,13:00:00,,,"","",,,
63,2015-03-12T14:00:00,14:00:00,,,"","",,,
64,2015-03-12T15:00:00,15:00:00,,,"","",,,
65,2015-03-12T16:00:00,16:00:00,,,"","",,,
66,2015-03-12T17:00:00,17:00:00,,,"","",,,
67,2015-03-12T18:00:00,18:00:00,,,"","",,,
68,2015-03-12T19:00:00,19:00:00,,,"","",,,
69,2015-03-12T20:00:00,20:00:00,,,"","",,,
70,2015-03-12T21:00:00,21:00:00,,,"","",,,
71,2015-03-12T22:00:00,22:00:00,,,"","",,,
72,2015-03-12T23:00:00,23:00:00,,,"","",,,
73,2015-03-13T00:00:00,00:00:00,,,"","",,,
74,2015-03-13T01:00:00,01:00:00,,,"","",,,
75,2015-03-13T02:00:00,02:00:00,,,"","",,,
76,2015-03-13T03:00:00,03:00:00,,,"","",,,
77,2015-03-13T04:00:00,04:00:00,,,"","",,,
78,2015-03-13T05:00:00,05:00:00,,,"","",,,
79,2015-03-13T06:00:00,06:00:00,,,"","",,,
80,2015-03-13T07:00:00,07:00:00,,,"","",,,
81,2015-03-13T08:00:00,08:00:00,,,"","",,,
82,2015-03-13T09:00:00,09:00:00,,,"","",,,
83,2015-03-13T10:00:00,10:00:00,,,"","",,,
84,2015-03-13T11:00:00,11:00:00,,,"","",,,
85,2015-03-13T12:00:00,12:00:00,,,"","",,,
86,2015-03-13T13:00:00,13:00:00,,,"","",,,
87,2015-03-13T14:00:00,14:00:00,,,"","",,,
88,2015-03-13T15:00:00,15:00:00,,,"","",,,
89,2015-03-13T16:00:00,16:00:00,,,"","",,,
90,2015-03-13T17:00:00,17:00:00,,,"","",,,
91,2015-03-13T18:00:00,18:00:00,,,"","",,,
92,2015-03-13T19:00:00,19:00:00,,,"","",,,
93,2015-03-13T20:00:00,20:00:00,,,"","",,,
94,2015-03-13T21:00:00,21:00:00,,,"","",,,
95,2015-03-13T22:00:00,22:00:00,,,"","",,,
96,2015-03-13T23:00:00,23:00:00,,,"","",,,
97,2015-03-14T00:00:00,00:00:00,,,"","",,,
98,2015-03-14T01:00:00,01:00:00,,,"","",,,
99,2015-03-14T02:00:00,02:00:00,,,"","",,,
100,2015-03-14T03:00:00,03:00:00,,,"","",,,
101,2015-03-14T04:00:00,04:00:00,,,"","",,,
102,2015-03-14T05:00:00,05:00:00,,,"","",,,
103,2015-03-14T06:00:00,06:00:00,,,"","",,,
104,2015-03-14T07:00:00,07:00:00,,,"","",,,
105,2015-03-14T08:00:00,08:00:00,,,"","",,,
106,2015-03-14T09:00:00,09:00:00,,,"","",,,
107,2015-03-14T10:00:00,10:00:00,,,"","",,,
108,2015-03-14T11:00:00,11:00:00,,,"","",,,
109,2015-03-14T12:00:00,12:00:00,,,"","",,,
110,2015-03-14T13:00:00,13:00:00,,,"","",,,
111,2015-03-14T14:00:00,14:00:00,,,"","",,,
112,2015-03-14T15:00:00,15:00:00,,,"","",,,
113,2015-03-14T16:00:00,16:00:00,,,"","",,,
114,2015-03-14T17:00:00,17:00:00,,,"","",,,
115,2015-03-14T18:00:00,18:00:00,,,"","",,,
116,2015-03-14T19:00:00,19:00:00,,,"","",,,
117,2015-03-14T20:00:00,20:00:00,,,"","",,,
118,2015-03-14T21:00:00,21:00:00,,,"","",,,
119,2015-03-14T22:00:00,22:00:00,,,"","",,,
120,2015-03-14T23:00:00,23:00:00,,,"","",,,
121,2015-03-15T00:00:00,00:00:00,,,"","",,,
122,2015-03-15T01:00:00,01:00:00,,,"","",,,
123,2015-03-15T02:00:00,02:00:00,,,"","",,,
124,2015-03-15T03:00:00,03:00:00,,,"","",,,
125,2015-03-15T04:00:00,04:00:00,,,"","",,,
126,2015-03-15T05:00:00,05:00:00,,,"","",,,
127,2015-03-15T06:00:00,06:00:00,,,"","",,,
128,2015-03-15T07:00:00,07:00:00,,,"","",,,
129,2015-03-15T08:00:00,08:00:00,,,"","",,,
130,2015-03-15T09:00:00,09:00:00,,,"","",,,
131,2015-03-15T10:00:00,10:00:00,,,"","",,,
132,2015-03-15T11:00:00,11:00:00,,,"","",,,
133,2015-03-15T12:00:00,12:00:00,,,"","",,,
134,2015-03-15T13:00:00,13:00:00,,,"","",,,
135,2015-03-15T14:00:00,14:00:00,,,"","",,,
136,2015-03-15T15:00:00,15:00:00,,,"","",,,
137,2015-03-15T16:00:00,16:00:00,,,"","",,,
138,2015-03-15T17:00:00,17:00:00,,,"","",,,
139,2015-03-15T18:00:00,18:00:00,,,"","",,,
140,2015-03-15T19:00:00,19:00:00,,,"","",,,
141,2015-03-15T20:00:00,20:00:00,,,"","",,,
142,2015-03-15T21:00:00,21:00:00,,,"","",,,
143,2015-03-15T22:00:00,22:00:00,,,"","",,,
144,2015-03-15T23:00:00,23:00:00,,,"","",,,
145,2015-03-16T00:00:00,00:00:00,191,384,V/m,SWI,52.116,21.237,100
146,2015-03-16T01:00:00,01:00:00,,,"","",,,
147,2015-03-16T02:00:00,02:00:00,,,"","",,,
148,2015-03-16T03:00:00,03:00:00,,,"","",,,
149,2015-03-16T04:00:00,04:00:00,,,"","",,,
150,2015-03-16T05:00:00,05:00:00,202,347,V/m,SWI,52.116,21.237,100
151,2015-03-16T06:00:00,06:00:00,235,353,V/m,SWI,52.116,21.237,100
152,2015-03-16T07:00:00,07:00:00,252,347,V/m,SWI,52.116,21.237,100
153,2015-03-16T08:00:00,08:00:00,274,313,V/m,SWI,52.116,21.237,100
154,2015-03-16T09:00:00,09:00:00,233,283,V/m,SWI,52.116,21.237,100
155,2015-03-16T10:00:00,10:00:00,251,265,V/m,SWI,52.116,21.237,100
156,2015-03-16T11:00:00,11:00:00,265,255,V/m,SWI,52.116,21.237,100
157,2015-03-16T12:00:00,12:00:00,310,262,V/m,SWI,52.116,21.237,100
158,2015-03-16T13:00:00,13:00:00,331,274,V/m,SWI,52.116,21.237,100
159,2015-03-16T14:00:00,14:00:00,395,278,V/m,SWI,52.116,21.237,100
160,2015-03-16T15:00:00,15:00:00,356,281,V/m,SWI,52.116,21.237,100
161,2015-03-16T16:00:00,16:00:00,377,273,V/m,SWI,52.116,21.237,100
162,2015-03-16T17:00:00,17:00:00,428,339,V/m,SWI,52.116,21.237,100
163,2015-03-16T18:00:00,18:00:00,490,424,V/m,SWI,52.116,21.237,100
164,2015-03-16T19:00:00,19:00:00,448,505,V/m,SWI,52.116,21.237,100
165,2015-03-16T20:00:00,20:00:00,386,514,V/m,SWI,52.116,21.237,100
166,2015-03-16T21:00:00,21:00:00,392,495,V/m,SWI,52.116,21.237,100
167,2015-03-16T22:00:00,22:00:00,386,462,V/m,SWI,52.116,21.237,100
168,2015-03-16T23:00:00,23:00:00,351,399,V/m,SWI,52.116,21.237,100
169,2015-03-17T00:00:00,00:00:00,326,384,V/m,SWI,52.116,21.237,100
170,2015-03-17T01:00:00,01:00:00,305,360,V/m,SWI,52.116,21.237,100
171,2015-03-17T02:00:00,02:00:00,310,328,V/m,SWI,52.116,21.237,100
172,2015-03-17T03:00:00,03:00:00,276,318,V/m,SWI,52.116,21.237,100
173,2015-03-17T04:00:00,04:00:00,275,326,V/m,SWI,52.116,21.237,100
174,2015-03-17T05:00:00,05:00:00,315,347,V/m,SWI,52.116,21.237,100
175,2015-03-17T06:00:00,06:00:00,381,353,V/m,SWI,52.116,21.237,100
176,2015-03-17T07:00:00,07:00:00,430,347,V/m,SWI,52.116,21.237,100
177,2015-03-17T08:00:00,08:00:00,472,313,V/m,SWI,52.116,21.237,100
178,2015-03-17T09:00:00,09:00:00,427,283,V/m,SWI,52.116,21.237,100
179,2015-03-17T10:00:00,10:00:00,445,265,V/m,SWI,52.116,21.237,100
180,2015-03-17T11:00:00,11:00:00,409,255,V/m,SWI,52.116,21.237,100
181,2015-03-17T12:00:00,12:00:00,400,262,V/m,SWI,52.116,21.237,100
182,2015-03-17T13:00:00,13:00:00,359,274,V/m,SWI,52.116,21.237,100
183,2015-03-17T14:00:00,14:00:00,391,278,V/m,SWI,52.116,21.237,100
184,2015-03-17T15:00:00,15:00:00,379,281,V/m,SWI,52.116,21.237,100
185,2015-03-17T16:00:00,16:00:00,413,273,V/m,SWI,52.116,21.237,100
186,2015-03-17T17:00:00,17:00:00,607,339,V/m,SWI,52.116,21.237,100
187,2015-03-17T18:00:00,18:00:00,618,424,V/m,SWI,52.116,21.237,100
188,2015-03-17T19:00:00,19:00:00,528,505,V/m,SWI,52.116,21.237,100
189,2015-03-17T20:00:00,20:00:00,431,514,V/m,SWI,52.116,21.237,100
190,2015-03-17T21:00:00,21:00:00,382,495,V/m,SWI,52.116,21.237,100
191,2015-03-17T22:00:00,22:00:00,330,462,V/m,SWI,52.116,21.237,100
192,2015-03-17T23:00:00,23:00:00,310,399,V/m,SWI,52.116,21.237,100
193,2015-03-18T00:00:00,00:00:00,325,384,V/m,SWI,52.116,21.237,100
194,2015-03-18T01:00:00,01:00:00,357,360,V/m,SWI,52.116,21.237,100
195,2015-03-18T02:00:00,02:00:00,408,328,V/m,SWI,52.116,21.237,100
196,2015-03-18T03:00:00,03:00:00,332,318,V/m,SWI,52.116,21.237,100
197,2015-03-18T04:00:00,04:00:00,367,326,V/m,SWI,52.116,21.237,100
198,2015-03-18T05:00:00,05:00:00,351,347,V/m,SWI,52.116,21.237,100
199,2015-03-18T06:00:00,06:00:00,333,353,V/m,SWI,52.116,21.237,100
200,2015-03-18T07:00:00,07:00:00,353,347,V/m,SWI,52.116,21.237,100
201,2015-03-18T08:00:00,08:00:00,273,313,V/m,SWI,52.116,21.237,100
202,2015-03-18T09:00:00,09:00:00,291,283,V/m,SWI,52.116,21.237,100
203,2015-03-18T10:00:00,10:00:00,321,265,V/m,SWI,52.116,21.237,100
204,2015-03-18T11:00:00,11:00:00,322,255,V/m,SWI,52.116,21.237,100
205,2015-03-18T12:00:00,12:00:00,345,262,V/m,SWI,52.116,21.237,100
206,2015-03-18T13:00:00,13:00:00,343,274,V/m,SWI,52.116,21.237,100
207,2015-03-18T14:00:00,14:00:00,356,278,V/m,SWI,52.116,21.237,100
208,2015-03-18T15:00:00,15:00:00,361,281,V/m,SWI,52.116,21.237,100
209,2015-03-18T16:00:00,16:00:00,384,273,V/m,SWI,52.116,21.237,100
210,2015-03-18T17:00:00,17:00:00,494,339,V/m,SWI,52.116,21.237,100
211,2015-03-18T18:00:00,18:00:00,661,424,V/m,SWI,52.116,21.237,100
212,2015-03-18T19:00:00,19:00:00,781,505,V/m,SWI,52.116,21.237,100
213,2015-03-18T20:00:00,20:00:00,733,514,V/m,SWI,52.116,21.237,100
214,2015-03-18T21:00:00,21:00:00,601,495,V/m,SWI,52.116,21.237,100
215,2015-03-18T22:00:00,22:00:00,504,462,V/m,SWI,52.116,21.237,100
216,2015-03-18T23:00:00,23:00:00,443,399,V/m,SWI,52.116,21.237,100
217,2015-03-19T00:00:00,00:00:00,346,384,V/m,SWI,52.116,21.237,100
218,2015-03-19T01:00:00,01:00:00,347,360,V/m,SWI,52.116,21.237,100
219,2015-03-19T02:00:00,02:00:00,327,328,V/m,SWI,52.116,21.237,100
220,2015-03-19T03:00:00,03:00:00,312,318,V/m,SWI,52.116,21.237,100
221,2015-03-19T04:00:00,04:00:00,326,326,V/m,SWI,52.116,21.237,100
222,2015-03-19T05:00:00,05:00:00,346,347,V/m,SWI,52.116,21.237,100
223,2015-03-19T06:00:00,06:00:00,450,353,V/m,SWI,52.116,21.237,100
224,2015-03-19T07:00:00,07:00:00,456,347,V/m,SWI,52.116,21.237,100
225,2015-03-19T08:00:00,08:00:00,357,313,V/m,SWI,52.116,21.237,100
226,2015-03-19T09:00:00,09:00:00,306,283,V/m,SWI,52.116,21.237,100
227,2015-03-19T10:00:00,10:00:00,292,265,V/m,SWI,52.116,21.237,100
228,2015-03-19T11:00:00,11:00:00,281,255,V/m,SWI,52.116,21.237,100
229,2015-03-19T12:00:00,12:00:00,299,262,V/m,SWI,52.116,21.237,100
230,2015-03-19T13:00:00,13:00:00,316,274,V/m,SWI,52.116,21.237,100
231,2015-03-19T14:00:00,14:00:00,324,278,V/m,SWI,52.116,21.237,100
232,2015-03-19T15:00:00,15:00:00,300,281,V/m,SWI,52.116,21.237,100
233,2015-03-19T16:00:00,16:00:00,318,273,V/m,SWI,52.116,21.237,100
234,2015-03-19T17:00:00,17:00:00,464,339,V/m,SWI,52.116,21.237,100
235,2015-03-19T18:00:00,18:00:00,682,424,V/m,SWI,52.116,21.237,100
236,2015-03-19T19:00:00,19:00:00,772,505,V/m,SWI,52.116,21.237,100
237,2015-03-19T20:00:00,20:00:00,825,514,V/m,SWI,52.116,21.237,100
238,2015-03-19T21:00:00,21:00:00,663,495,V/m,SWI,52.116,21.237,100
239,2015-03-19T22:00:00,22:00:00,517,462,V/m,SWI,52.116,21.237,100
240,2015-03-19T23:00:00,23:00:00,385,399,V/m,SWI,52.116,21.237,100
241,2015-03-20T00:00:00,00:00:00,269,384,V/m,SWI,52.116,21.237,100
242,2015-03-20T01:00:00,01:00:00,220,360,V/m,SWI,52.116,21.237,100
243,2015-03-20T02:00:00,02:00:00,188,328,V/m,SWI,52.116,21.237,100
244,2015-03-20T03:00:00,03:00:00,116,318,V/m,SWI,52.116,21.237,100
245,2015-03-20T04:00:00,04:00:00,133,326,V/m,SWI,52.116,21.237,100
246,2015-03-20T05:00:00,05:00:00,117,347,V/m,SWI,52.116,21.237,100
247,2015-03-20T06:00:00,06:00:00,233,353,V/m,SWI,52.116,21.237,100
248,2015-03-20T07:00:00,07:00:00,235,347,V/m,SWI,52.116,21.237,100
249,2015-03-20T08:00:00,08:00:00,261,313,V/m,SWI,52.116,21.237,100
250,2015-03-20T09:00:00,09:00:00,192,283,V/m,SWI,52.116,21.237,100
251,2015-03-20T10:00:00,10:00:00,188,265,V/m,SWI,52.116,21.237,100
252,2015-03-20T11:00:00,11:00:00,209,255,V/m,SWI,52.116,21.237,100
253,2015-03-20T12:00:00,12:00:00,221,262,V/m,SWI,52.116,21.237,100
254,2015-03-20T13:00:00,13:00:00,249,274,V/m,SWI,52.116,21.237,100
255,2015-03-20T14:00:00,14:00:00,250,278,V/m,SWI,52.116,21.237,100
256,2015-03-20T15:00:00,15:00:00,262,281,V/m,SWI,52.116,21.237,100
257,2015-03-20T16:00:00,16:00:00,239,273,V/m,SWI,52.116,21.237,100
258,2015-03-20T17:00:00,17:00:00,304,339,V/m,SWI,52.116,21.237,100
259,2015-03-20T18:00:00,18:00:00,363,424,V/m,SWI,52.116,21.237,100
260,2015-03-20T19:00:00,19:00:00,553,505,V/m,SWI,52.116,21.237,100
261,2015-03-20T20:00:00,20:00:00,615,514,V/m,SWI,52.116,21.237,100
262,2015-03-20T21:00:00,21:00:00,574,495,V/m,SWI,52.116,21.237,100
263,2015-03-20T22:00:00,22:00:00,499,462,V/m,SWI,52.116,21.237,100
264,2015-03-20T23:00:00,23:00:00,342,399,V/m,SWI,52.116,21.237,100
265,2015-03-21T00:00:00,00:00:00,392,384,V/m,SWI,52.116,21.237,100
266,2015-03-21T01:00:00,01:00:00,358,360,V/m,SWI,52.116,21.237,100
267,2015-03-21T02:00:00,02:00:00,295,328,V/m,SWI,52.116,21.237,100
268,2015-03-21T03:00:00,03:00:00,279,318,V/m,SWI,52.116,21.237,100
269,2015-03-21T04:00:00,04:00:00,303,326,V/m,SWI,52.116,21.237,100
270,2015-03-21T05:00:00,05:00:00,316,347,V/m,SWI,52.116,21.237,100
271,2015-03-21T06:00:00,06:00:00,315,353,V/m,SWI,52.116,21.237,100
272,2015-03-21T07:00:00,07:00:00,369,347,V/m,SWI,52.116,21.237,100
273,2015-03-21T08:00:00,08:00:00,368,313,V/m,SWI,52.116,21.237,100
274,2015-03-21T09:00:00,09:00:00,301,283,V/m,SWI,52.116,21.237,100
275,2015-03-21T10:00:00,10:00:00,251,265,V/m,SWI,52.116,21.237,100
276,2015-03-21T11:00:00,11:00:00,233,255,V/m,SWI,52.116,21.237,100
277,2015-03-21T12:00:00,12:00:00,247,262,V/m,SWI,52.116,21.237,100
278,2015-03-21T13:00:00,13:00:00,275,274,V/m,SWI,52.116,21.237,100
279,2015-03-21T14:00:00,14:00:00,295,278,V/m,SWI,52.116,21.237,100
280,2015-03-21T15:00:00,15:00:00,298,281,V/m,SWI,52.116,21.237,100
281,2015-03-21T16:00:00,16:00:00,276,273,V/m,SWI,52.116,21.237,100
282,2015-03-21T17:00:00,17:00:00,367,339,V/m,SWI,52.116,21.237,100
283,2015-03-21T18:00:00,18:00:00,418,424,V/m,SWI,52.116,21.237,100
284,2015-03-21T19:00:00,19:00:00,540,505,V/m,SWI,52.116,21.237,100
285,2015-03-21T20:00:00,20:00:00,632,514,V/m,SWI,52.116,21.237,100
286,2015-03-21T21:00:00,21:00:00,267,495,V/m,SWI,52.116,21.237,100
287,2015-03-21T22:00:00,22:00:00,,,"","",,,
288,2015-03-21T23:00:00,23:00:00,,,"","",,,
289,2015-03-22T00:00:00,00:00:00,,,"","",,,
290,2015-03-22T01:00:00,01:00:00,,,"","",,,
291,2015-03-22T02:00:00,02:00:00,,,"","",,,
292,2015-03-22T03:00:00,03:00:00,,,"","",,,
293,2015-03-22T04:00:00,04:00:00,,,"","",,,
294,2015-03-22T05:00:00,05:00:00,,,"","",,,
295,2015-03-22T06:00:00,06:00:00,,,"","",,,
296,2015-03-22T07:00:00,07:00:00,293,347,V/m,SWI,52.116,21.237,100
297,2015-03-22T08:00:00,08:00:00,400,313,V/m,SWI,52.116,21.237,100
298,2015-03-22T09:00:00,09:00:00,444,283,V/m,SWI,52.116,21.237,100
299,2015-03-22T10:00:00,10:00:00,425,265,V/m,SWI,52.116,21.237,100
300,2015-03-22T11:00:00,11:00:00,352,255,V/m,SWI,52.116,21.237,100
301,2015-03-22T12:00:00,12:00:00,353,262,V/m,SWI,52.116,21.237,100
302,2015-03-22T13:00:00,13:00:00,357,274,V/m,SWI,52.116,21.237,100
303,2015-03-22T14:00:00,14:00:00,351,278,V/m,SWI,52.116,21.237,100
304,2015-03-22T15:00:00,15:00:00,342,281,V/m,SWI,52.116,21.237,100
305,2015-03-22T16:00:00,16:00:00,364,273,V/m,SWI,52.116,21.237,100
306,2015-03-22T17:00:00,17:00:00,419,339,V/m,SWI,52.116,21.237,100
307,2015-03-22T18:00:00,18:00:00,543,424,V/m,SWI,52.116,21.237,100
308,2015-03-22T19:00:00,19:00:00,860,505,V/m,SWI,52.116,21.237,100
309,2015-03-22T20:00:00,20:00:00,792,514,V/m,SWI,52.116,21.237,100
310,2015-03-22T21:00:00,21:00:00,898,495,V/m,SWI,52.116,21.237,100
311,2015-03-22T22:00:00,22:00:00,1043,462,V/m,SWI,52.116,21.237,100
312,2015-03-22T23:00:00,23:00:00,1116,399,V/m,SWI,52.116,21.237,100
313,2015-03-23T00:00:00,00:00:00,928,384,V/m,SWI,52.116,21.237,100
314,2015-03-23T01:00:00,01:00:00,890,360,V/m,SWI,52.116,21.237,100
315,2015-03-23T02:00:00,02:00:00,644,328,V/m,SWI,52.116,21.237,100
316,2015-03-23T03:00:00,03:00:00,508,318,V/m,SWI,52.116,21.237,100
317,2015-03-23T04:00:00,04:00:00,470,326,V/m,SWI,52.116,21.237,100
318,2015-03-23T05:00:00,05:00:00,488,347,V/m,SWI,52.116,21.237,100
319,2015-03-23T06:00:00,06:00:00,517,353,V/m,SWI,52.116,21.237,100
320,2015-03-23T07:00:00,07:00:00,455,347,V/m,SWI,52.116,21.237,100
321,2015-03-23T08:00:00,08:00:00,315,313,V/m,SWI,52.116,21.237,100
322,2015-03-23T09:00:00,09:00:00,288,283,V/m,SWI,52.116,21.237,100
323,2015-03-23T10:00:00,10:00:00,297,265,V/m,SWI,52.116,21.237,100
324,2015-03-23T11:00:00,11:00:00,269,255,V/m,SWI,52.116,21.237,100
325,2015-03-23T12:00:00,12:00:00,272,262,V/m,SWI,52.116,21.237,100
326,2015-03-23T13:00:00,13:00:00,263,274,V/m,SWI,52.116,21.237,100
327,2015-03-23T14:00:00,14:00:00,252,278,V/m,SWI,52.116,21.237,100
328,2015-03-23T15:00:00,15:00:00,268,281,V/m,SWI,52.116,21.237,100
329,2015-03-23T16:00:00,16:00:00,336,273,V/m,SWI,52.116,21.237,100
330,2015-03-23T17:00:00,17:00:00,485,339,V/m,SWI,52.116,21.237,100
331,2015-03-23T18:00:00,18:00:00,570,424,V/m,SWI,52.116,21.237,100
332,2015-03-23T19:00:00,19:00:00,654,505,V/m,SWI,52.116,21.237,100
333,2015-03-23T20:00:00,20:00:00,690,514,V/m,SWI,52.116,21.237,100
334,2015-03-23T21:00:00,21:00:00,712,495,V/m,SWI,52.116,21.237,100
335,2015-03-23T22:00:00,22:00:00,679,462,V/m,SWI,52.116,21.237,100
336,2015-03-23T23:00:00,23:00:00,500,399,V/m,SWI,52.116,21.237,100
337,2015-03-24T00:00:00,00:00:00,351,384,V/m,SWI,52.116,21.237,100
338,2015-03-24T01:00:00,01:00:00,309,360,V/m,SWI,52.116,21.237,100
339,2015-03-24T02:00:00,02:00:00,326,328,V/m,SWI,52.116,21.237,100
340,2015-03-24T03:00:00,03:00:00,455,318,V/m,SWI,52.116,21.237,100
341,2015-03-24T04:00:00,04:00:00,505,326,V/m,SWI,52.116,21.237,100
342,2015-03-24T05:00:00,05:00:00,530,347,V/m,SWI,52.116,21.237,100
343,2015-03-24T06:00:00,06:00:00,614,353,V/m,SWI,52.116,21.237,100
344,2015-03-24T07:00:00,07:00:00,526,347,V/m,SWI,52.116,21.237,100
345,2015-03-24T08:00:00,08:00:00,432,313,V/m,SWI,52.116,21.237,100
346,2015-03-24T09:00:00,09:00:00,308,283,V/m,SWI,52.116,21.237,100
347,2015-03-24T10:00:00,10:00:00,290,265,V/m,SWI,52.116,21.237,100
348,2015-03-24T11:00:00,11:00:00,276,255,V/m,SWI,52.116,21.237,100
349,2015-03-24T12:00:00,12:00:00,267,262,V/m,SWI,52.116,21.237,100
350,2015-03-24T13:00:00,13:00:00,257,274,V/m,SWI,52.116,21.237,100
351,2015-03-24T14:00:00,14:00:00,220,278,V/m,SWI,52.116,21.237,100
352,2015-03-24T15:00:00,15:00:00,235,281,V/m,SWI,52.116,21.237,100
353,2015-03-24T16:00:00,16:00:00,269,273,V/m,SWI,52.116,21.237,100
354,2015-03-24T17:00:00,17:00:00,409,339,V/m,SWI,52.116,21.237,100
355,2015-03-24T18:00:00,18:00:00,464,424,V/m,SWI,52.116,21.237,100
356,2015-03-24T19:00:00,19:00:00,389,505,V/m,SWI,52.116,21.237,100
357,2015-03-24T20:00:00,20:00:00,345,514,V/m,SWI,52.116,21.237,100
358,2015-03-24T21:00:00,21:00:00,362,495,V/m,SWI,52.116,21.237,100
359,2015-03-24T22:00:00,22:00:00,307,462,V/m,SWI,52.116,21.237,100
360,2015-03-24T23:00:00,23:00:00,308,399,V/m,SWI,52.116,21.237,100
